Location: Kitt Peak
(31.9639°N, 111.5992°W)
Time: 14:55:38
(UTC-07:00)

SRMSAT - Pass Details

Date: 22 December 2025
Orbit: 846 x 863 km, 20.0° (Epoch: 13 January)

Event Time Altitude Azimuth Distance (km) Brightness Sun altitude
Exits shadow 05:02:48 22° 190° (S) 1,760 ? -29.0°
Maximum altitude 05:02:59 22° 188° (S) 1,758 ? -28.9°
Drops below altitude 10° 05:07:24 10° 139° (SE) 2,457 ? -28.0°
Sets 05:10:31 0° 124° (SE) 3,395 ? -27.4°
